Fitchburg, MA

8:28 AM EDT on September 19, 2019 (GMT -0400)
Fitchburg Municipal

Weather History for KFIT - May, 2019

Change the Weather History Date:

Friday, May 17, 2019

  Actual Average (WUND) Record (WUND)
Temperature  
Mean Temperature 56 °F -  
Max Temperature 68 °F - - (-1)
Min Temperature 43 °F - - (-1)
Degree Days  
Heating Degree Days 10    
Growing Degree Days 6 (Base 50)    
Moisture  
Dew Point 49 °F    
Average Humidity 82    
Maximum Humidity 93    
Minimum Humidity 65    
Precipitation  
Precipitation 0.12 in - - ()
Sea Level Pressure  
Sea Level Pressure 29.78 in    
Wind  
Wind Speed 2 mph (West)    
Max Wind Speed 16 mph    
Max Gust Speed 21 mph    
Visibility 9 miles    
Events Rain    
Averages and records for this station are not official NWS values.
T = Trace of Precipitation, MM = Missing Value Source: NWS Daily Summary

Daily Weather History Graph

Daily Weather History Graph

Search for Another Location

Airport or City:

Astronomy

May. 17, 2019 Rise Set
Actual Time 5:23 AM EDT 8:04 PM EDT
Civil Twilight 4:50 AM EDT 8:36 PM EDT
Nautical Twilight 4:10 AM EDT 9:17 PM EDT
Astronomical Twilight 3:23 AM EDT 10:04 PM EDT
Moon 6:46 PM EDT (5/17) 4:56 AM EDT (5/17)
Length of Visible Light 15h 45m
Length of Day
14h 40m
Waxing Gibbous, 98% of the Moon is Illuminated
May 17
Waxing Gibbous
May 18
Full
May 26
Last Quarter
Jun 3
New
Jun 10
First Quarter

Hourly Weather History & Observations

Time (EDT) Temp. Windchill Dew Point Humidity Pressure Visibility Wind Dir Wind Speed Gust Speed Precip Events Conditions
12:52 AM 46.9 °F - 42.1 °F 83% 29.87 in 10.0 mi Calm Calm - N/A   Clear
1:52 AM 45.0 °F - 41.0 °F 86% 29.86 in 10.0 mi Calm Calm - N/A   Clear
2:52 AM 43.0 °F 41.3 °F 41.0 °F 93% 29.85 in 10.0 mi NW 3.5 mph - N/A   Clear
3:52 AM 45.0 °F - 42.1 °F 90% 29.83 in 10.0 mi Calm Calm - N/A   Mostly Cloudy
4:52 AM 46.0 °F - 42.1 °F 86% 29.81 in 10.0 mi Calm Calm - N/A   Overcast
5:52 AM 48.0 °F - 43.0 °F 83% 29.81 in 10.0 mi Calm Calm - 0.00 in   Overcast
6:52 AM 48.9 °F - 44.1 °F 83% 29.83 in 10.0 mi Calm Calm - 0.00 in Rain Light Rain
7:52 AM 48.9 °F - 44.1 °F 83% 29.83 in 8.0 mi Calm Calm - 0.02 in Rain Light Rain
8:52 AM 48.9 °F - 45.0 °F 86% 29.83 in 8.0 mi NW 4.6 mph - 0.02 in Rain Light Rain
9:52 AM 50.0 °F - 46.0 °F 86% 29.82 in 6.0 mi Calm Calm - 0.06 in Rain Light Rain
10:52 AM 50.0 °F - 46.0 °F 86% 29.80 in 10.0 mi South 4.6 mph - 0.01 in   Overcast
11:52 AM 50.0 °F - 46.9 °F 89% 29.79 in 10.0 mi Calm Calm - N/A   Overcast
12:30 PM 51.1 °F - 48.0 °F 89% 29.77 in 8.0 mi Calm Calm - 0.00 in Rain Light Rain
12:52 PM 52.0 °F - 48.9 °F 89% 29.77 in 9.0 mi Calm Calm - 0.00 in   Overcast
1:52 PM 54.0 °F - 50.0 °F 86% 29.76 in 8.0 mi Calm Calm - 0.01 in   Overcast
2:52 PM 55.0 °F - 52.0 °F 89% 29.75 in 8.0 mi Calm Calm - N/A   Overcast
3:52 PM 62.1 °F - 55.0 °F 78% 29.72 in 10.0 mi West 5.8 mph - 0.00 in   Overcast
4:52 PM 66.9 °F - 55.9 °F 68% 29.70 in 10.0 mi WSW 16.1 mph 20.7 mph N/A   Overcast
5:52 PM 68.0 °F - 55.9 °F 65% 29.70 in 10.0 mi WSW 8.1 mph - N/A   Clear
6:52 PM 66.9 °F - 55.9 °F 68% 29.68 in 10.0 mi Variable 3.5 mph - N/A   Mostly Cloudy
7:52 PM 64.9 °F - 55.9 °F 73% 29.71 in 10.0 mi WSW 3.5 mph - N/A   Mostly Cloudy
8:52 PM 63.0 °F - 55.9 °F 78% 29.72 in 10.0 mi West 5.8 mph - N/A   Clear
9:52 PM 62.1 °F - 57.0 °F 84% 29.74 in 10.0 mi WNW 5.8 mph - N/A   Clear
10:52 PM 60.1 °F - 53.1 °F 78% 29.75 in 10.0 mi WNW 9.2 mph - N/A   Clear
11:52 PM 59.0 °F - 48.0 °F 67% 29.76 in 10.0 mi WNW 8.1 mph - N/A   Clear